• Join FlightAware (Why Join?)
  • Login
  • US Flag GB Flag 
05:39 EDT


 

Airport Tracker/Info


-or-


 

Live Flight TrackerFlight Track Log ✈ N100WX ✈ 09-May-2013 ✈ KOMA - KBED

Flight Track Log - Related Links

Times and Time Zones

All times are in EDT time to prevent confusion due to time zone crossing. See the N100WX flight status page for this flight to view local times or setup timezone preferences in your user account.

Time Position Orientation Groundspeed Altitude Reporting Facility
EDT Latitude Longitude Course Direction KTS MPH feet Rate Location/Type
16:12 41.3125 -95.9036 18° North 142 163 1,500  Level Minneapolis Center
16:13 41.3553 -95.8847 18° North 191 220 3,400 1,860 Climbing Minneapolis Center
16:14 41.3542 -95.8492 92° East 222 255 4,400 2,580 Climbing Minneapolis Center
16:14 41.3522 -95.8075 94° East 220 253 6,000 3,000 Climbing Minneapolis Center
16:15 41.3500 -95.7564 93° East 212 244 7,500 2,400 Climbing Minneapolis Center
16:16 41.3458 -95.6786 94° East 211 243 9,800 2,040 Climbing Minneapolis Center
16:17 41.3533 -95.5961 83° East 220 253 11,800 1,860 Climbing Minneapolis Center
16:18 41.3669 -95.5114 78° East 230 265 13,700 1,980 Climbing Minneapolis Center
16:19 41.3803 -95.4211 79° East 243 280 15,900 1,980 Climbing Minneapolis Center
16:20 41.3947 -95.3267 78° East 255 293 17,900 2,040 Climbing Minneapolis Center
16:21 41.4119 -95.2125 79° East 262 302 20,200 1,980 Climbing Minneapolis Center
16:22 41.4275 -95.1100 79° East 277 319 22,000 1,680 Climbing Minneapolis Center
16:23 41.4431 -95.0053 79° East 286 329 23,700 1,560 Climbing Minneapolis Center
16:24 41.4597 -94.8967 78° East 296 341 25,300 1,500 Climbing Minneapolis Center
16:25 41.4750 -94.7892 79° East 297 342 26,900 1,620 Climbing Minneapolis Center
16:26 41.4919 -94.6783 78° East 302 348 28,700 1,860 Climbing Minneapolis Center
16:27 41.5100 -94.5536 79° East 287 330 30,800 1,620 Climbing Minneapolis Center
16:28 41.5267 -94.4483 78° East 288 331 32,100 1,020 Climbing Minneapolis Center
16:29 41.5419 -94.3422 79° East 291 335 33,000 420 Climbing Minneapolis Center
16:30 41.5589 -94.2236 79° East 314 361 33,000  Level Minneapolis Center
16:31 41.5719 -94.0972 82° East 333 383 33,000 660 Level Minneapolis Center
16:32 41.5950 -93.9542 78° East 364 419 34,400 1,920 Climbing Minneapolis Center
16:33 41.6153 -93.8156 79° East 329 379 37,000 1,620 Climbing Minneapolis Center
16:34 41.6281 -93.7111 81° East 299 344 37,800 660 Climbing Minneapolis Center
16:35 41.6433 -93.6064 79° East 291 335 38,400 480 Climbing Minneapolis Center
16:37 41.6586 -93.4994 79° East 292 336 38,900 360 Climbing Minneapolis Center
16:38 41.6728 -93.3897 80° East 298 343 39,200 300 Climbing Minneapolis Center
16:39 41.6906 -93.2581 80° East 301 346 39,600 180 Climbing Minneapolis Center
16:40 41.7153 -93.0733 80° East 315 362 39,800 60 Climbing Chicago Center
16:41 41.7219 -93.0281 79° East 315 362 39,800 360 Level Minneapolis Center
16:42 41.7372 -92.9069 80° East 324 373 40,400 300 Climbing Minneapolis Center
16:43 41.7500 -92.8128 80° East 325 374 40,500 120 Climbing Minneapolis Center
16:44 41.7697 -92.6647 80° East 328 377 40,700 240 Climbing Minneapolis Center
16:44 41.7703 -92.5883 89° East 338 389 40,900 180 Climbing Chicago Center
16:45 41.7672 -92.4669 92° East 331 381 41,000  Climbing Chicago Center
16:46 41.7867 -92.3156 80° East 347 399 41,000  Level Chicago Center
16:47 41.8019 -92.1836 81° East 357 411 41,000  Level Chicago Center
16:48 41.8175 -92.0469 81° East 368 423 41,000  Level Chicago Center
16:50 41.8364 -91.9153 79° East 368 423 41,000  Level Chicago Center
16:51 41.8564 -91.7494 81° East 377 434 41,000  Level Chicago Center
16:52 41.8728 -91.6086 81° East 383 441 41,000  Level Chicago Center
16:53 41.8897 -91.4700 81° East 383 441 41,000  Level Chicago Center
16:54 41.9050 -91.3314 82° East 381 438 41,000  Level Chicago Center
16:55 41.9214 -91.1969 81° East 374 430 41,000  Level Chicago Center
16:56 41.9400 -91.0364 81° East 368 423 41,000  Level Chicago Center
16:57 41.9553 -90.9014 81° East 369 425 41,000  Level Chicago Center
16:58 41.9703 -90.7703 81° East 364 419 41,000  Level Chicago Center
16:59 41.9844 -90.6361 82° East 365 420 41,000  Level Chicago Center
17:00 42.0019 -90.4775 82° East 364 419 41,000  Level Chicago Center
17:01 42.0161 -90.3467 82° East 360 414 41,000  Level Chicago Center
17:02 42.0306 -90.2158 82° East 358 412 41,000  Level Chicago Center
17:03 42.0447 -90.0853 82° East 358 412 41,000  Level Chicago Center
17:04 42.0578 -89.9533 82° East 359 413 41,000  Level Chicago Center
17:05 42.0744 -89.7972 82° East 357 411 41,000  Level Chicago Center
17:06 42.0878 -89.6647 82° East 357 411 41,000  Level Chicago Center
17:07 42.1017 -89.5328 82° East 357 411 41,000  Level Chicago Center
17:08 42.1136 -89.3997 83° East 357 411 41,000  Level Chicago Center
17:09 42.1297 -89.2467 82° East 356 410 41,000  Level Chicago Center
17:10 42.1425 -89.1147 83° East 357 411 41,000  Level Chicago Center
17:11 42.1553 -88.9808 83° East 359 413 41,000  Level Chicago Center
17:12 42.1681 -88.8497 82° East 357 411 41,000  Level Chicago Center
17:13 42.1825 -88.7011 82° East 361 415 41,000  Level Chicago Center
17:14 42.1939 -88.5692 83° East 359 413 41,000  Level Chicago Center
17:15 42.2067 -88.4364 83° East 357 411 41,000  Level Chicago Center
17:16 42.2186 -88.3031 83° East 358 412 41,000  Level Chicago Center
17:17 42.2297 -88.1689 84° East 360 414 41,000  Level Chicago Center
17:18 42.2442 -88.0089 83° East 360 414 41,000  Level Chicago Center
17:20 42.2556 -87.8756 83° East 358 412 41,000  Level Chicago Center
17:21 42.2672 -87.7439 83° East 356 410 41,000  Level Chicago Center
17:22 42.2775 -87.6100 84° East 358 412 41,000  Level Chicago Center
17:23 42.2883 -87.4772 84° East 356 410 41,000  Level Chicago Center
17:24 42.3000 -87.3439 83° East 357 411 41,000  Level Chicago Center
17:25 42.3131 -87.1828 84° East 359 413 41,000  Level Chicago Center
17:26 42.3239 -87.0489 84° East 360 414 41,000  Level Chicago Center
17:27 42.3561 -86.9219 71° East 360 414 41,000  Level Chicago Center
17:28 42.3861 -86.7939 72° East 359 413 41,000  Level Chicago Center
17:29 42.4189 -86.6533 72° East 363 418 41,000  Level Chicago Center
17:30 42.4489 -86.5244 72° East 362 417 41,000  Level Chicago Center
17:31 42.4789 -86.3958 72° East 360 414 41,000  Level Chicago Center
17:32 42.5081 -86.2664 73° East 361 415 41,000  Level Chicago Center
17:33 42.5428 -86.1108 73° East 361 415 41,000  Level Chicago Center
17:34 42.5731 -85.9819 72° East 362 417 41,000  Level Chicago Center
17:35 42.6017 -85.8544 73° East 359 413 41,000  Level Chicago Center
17:36 42.6297 -85.7258 73° East 359 413 41,000  Level Chicago Center
17:37 42.6647 -85.5711 73° East 359 413 41,000  Level Chicago Center
17:38 42.6931 -85.4419 73° East 361 415 41,000  Level Chicago Center
17:39 42.7222 -85.3114 73° East 362 417 41,000  Level Chicago Center
17:40 42.7500 -85.1814 74° East 361 415 41,000  Level Chicago Center
17:41 42.7794 -85.0508 73° East 362 417 41,000  Level Chicago Center
17:42 42.8133 -84.8922 74° East 364 419 41,000  Level Chicago Center
17:43 42.8408 -84.7600 74° East 364 419 41,000  Level Chicago Center
17:44 42.8703 -84.6264 73° East 368 423 41,000  Level Chicago Center
17:45 42.8975 -84.4933 74° East 368 423 41,000  Level Chicago Center
17:46 42.9264 -84.3586 74° East 369 425 41,000  Level Chicago Center
17:47 42.9544 -84.2267 74° East 365 420 41,000  Level Chicago Center
17:48 42.9875 -84.0644 74° East 369 425 41,000  Level Chicago Center
17:49 43.0000 -83.9500 81° East 370 426 41,000  Level Toronto Center
17:50 43.0408 -83.7961 70° East 361 415 41,000  Level Cleveland Center
17:51 43.0694 -83.6583 74° East 367 422 41,000  Level Cleveland Center
17:52 43.0958 -83.5231 75° East 367 422 41,000  Level Cleveland Center
17:53 43.1242 -83.3881 74° East 372 428 41,000  Level Cleveland Center
17:54 43.1525 -83.2497 74° East 372 428 41,000  Level Cleveland Center
17:55 43.1722 -83.1111 79° East 372 428 41,000  Level Cleveland Center
17:56 43.1711 -82.9686 91° East 367 422 41,000  Level Cleveland Center
17:57 43.1719 -82.8264 89° East 367 422 41,000  Level Cleveland Center
17:58 43.1683 -82.6811 92° East 367 422 41,000  Level Cleveland Center
17:59 43.1667 -82.5333 91° East 380 437 41,000  Level Toronto Center
18:00 43.1500 -82.4000 100° East 380 437 41,000  Level Toronto Center
18:01 43.1500 -82.2667 90° East 370 426 41,000  Level Toronto Center
18:02 43.1500 -82.1167 90° East 370 426 41,000  Level Toronto Center
18:03 43.1333 -81.9833 100° East 370 426 41,000  Level Toronto Center
18:04 43.1500 -81.8333 81° East 380 437 41,000  Level Toronto Center
18:05 43.1500 -81.6833 90° East 380 437 41,000  Level Toronto Center
18:06 43.1500 -81.5500 90° East 380 437 41,000  Level Toronto Center
18:07 43.1333 -81.4167 100° East 380 437 41,000  Level Toronto Center
18:08 43.1333 -81.2500 90° East 380 437 41,000  Level Toronto Center
18:09 43.1333 -81.1167 90° East 380 437 41,000  Level Toronto Center
18:10 43.1167 -80.9500 98° East 380 437 41,000  Level Toronto Center
18:11 43.1167 -80.8167 90° East 380 437 41,000  Level Toronto Center
18:12 43.1333 -80.6833 80° East 380 437 41,000  Level Toronto Center
18:13 43.1167 -80.5500 100° East 370 426 41,000  Level Toronto Center
18:14 43.1167 -80.3833 90° East 370 426 41,000  Level Toronto Center
18:15 43.1167 -80.2500 90° East 370 426 41,000  Level Toronto Center
18:16 43.1167 -80.1167 90° East 370 426 41,000  Level Toronto Center
18:17 43.1000 -79.9833 100° East 370 426 41,000  Level Toronto Center
18:18 43.1000 -79.8333 90° East 370 426 41,000  Level Toronto Center
18:19 43.1000 -79.7000 90° East 370 426 41,000  Level Toronto Center
18:20 43.0833 -79.5667 100° East 370 426 41,000  Level Toronto Center
18:21 43.0833 -79.4000 90° East 370 426 41,000  Level Toronto Center
18:22 43.0833 -79.2667 90° East 370 426 41,000  Level Toronto Center
18:23 43.0833 -79.1333 90° East 370 426 41,000  Level Toronto Center
18:24 43.0667 -79.0000 100° East 380 437 41,000  Level Toronto Center
18:25 43.0667 -78.8333 90° East 380 437 41,000  Level Toronto Center
18:26 43.0722 -78.8325 North 364 419 41,000  Level Cleveland Center
18:27 43.0658 -78.6906 93° East 364 419 41,000  Level Cleveland Center
18:28 43.0592 -78.5489 94° East 364 419 41,000  Level Cleveland Center
18:29 43.0525 -78.4042 94° East 364 419 41,000  Level Cleveland Center
18:30 43.0475 -78.2622 93° East 364 419 41,000  Level Cleveland Center
18:31 43.0381 -78.1092 95° East 364 419 41,000  Level Cleveland Center
18:32 43.0308 -77.9675 94° East 364 419 41,000  Level Cleveland Center
18:33 43.0233 -77.8256 94° East 364 419 41,000  Level Cleveland Center
18:34 43.0181 -77.6867 93° East 364 419 41,000  Level Cleveland Center
18:35 43.0103 -77.5481 94° East 364 419 41,000  Level Cleveland Center
18:36 43.0022 -77.4092 94° East 364 419 41,000  Level Cleveland Center
18:37 42.9833 -77.1500 96° East 370 426 41,000  Level Toronto Center
18:38 42.9667 -77.0167 100° East 370 426 41,000  Level Toronto Center
18:39 42.9667 -76.8833 90° East 370 426 41,000  Level Toronto Center
18:40 42.9692 -76.8019 88° East 370 426 41,000  Level Boston Center
18:41 42.9600 -76.6622 95° East 370 426 41,000  Level Boston Center
18:42 42.9506 -76.5142 95° East 370 426 41,000  Level Boston Center
18:43 42.9411 -76.3744 95° East 370 426 41,000 -120 Level Boston Center
18:44 42.9331 -76.2378 95° East 370 426 40,800 -360 Descending Boston Center
18:45 42.9231 -76.0981 96° East 370 426 40,300 -540 Descending Boston Center
18:46 42.9131 -75.9528 95° East 370 426 39,800 -540 Descending Boston Center
18:47 42.9031 -75.8050 95° East 375 432 39,300 -480 Descending Boston Center
18:48 42.8947 -75.6628 95° East 375 432 38,900 -480 Descending Boston Center
18:49 42.8819 -75.5203 97° East 375 432 38,400 -1,020 Descending Boston Center
18:50 42.8711 -75.3725 96° East 375 432 36,900 -2,040 Descending Boston Center
18:51 42.8625 -75.2217 94° East 386 444 34,400 -1,980 Descending Boston Center
18:52 42.8492 -75.0797 97° East 386 444 33,000 -720 Descending Boston Center
18:53 42.8378 -74.9403 96° East 380 437 33,000  Level Boston Center
18:54 42.8300 -74.8125 95° East 364 419 33,000  Level Boston Center
18:55 42.8183 -74.6622 96° East 343 395 33,000  Level Boston Center
18:56 42.8083 -74.5372 96° East 331 381 33,000  Level Boston Center
18:57 42.7981 -74.4153 97° East 331 381 33,000  Level Boston Center
18:58 42.7911 -74.3300 96° East 331 381 33,000  Level Boston Center
18:59 42.7789 -74.1856 97° East 331 381 33,000  Level Boston Center
19:00 42.7703 -74.0664 96° East 326 375 33,000  Level Boston Center
19:01 42.7589 -73.9728 99° East 321 369 33,000  Level Boston Center
19:02 42.7461 -73.8283 97° East 321 369 33,000  Level Boston Center
19:03 42.7392 -73.7122 95° East 314 361 33,000 -660 Level Boston Center
19:04 42.7239 -73.5903 100° East 314 361 31,700 -1,440 Descending Boston Center
19:05 42.7106 -73.4600 98° East 326 375 30,200 -1,980 Descending Boston Center
19:07 42.6864 -73.3165 103° East  Level FlightAware Approximate
19:07 42.6833 -73.2025 103° East 338 389 25,800  Level Boston Center
19:08 42.6694 -73.0839 99° East 331 381 24,000 -900 Descending Boston Center
19:09 42.6556 -72.9539 98° East 315 362 24,000 -900 Level Boston Center
19:10 42.6414 -72.8522 101° East 301 346 22,200 -2,160 Descending Boston Center
19:12 42.6292 -72.7308 98° East 297 342 19,300 -3,060 Descending Boston Center
19:13 42.6128 -72.6122 101° East 296 341 15,500 -3,660 Descending Boston Center
19:14 42.5839 -72.4992 109° East 296 341 12,000 -2,280 Descending Boston Center
19:15 42.5797 -72.3894 93° East 296 341 11,000 -540 Descending Boston Center
19:16 42.5711 -72.2936 97° East 279 321 11,000  Level Boston Center
19:17 42.5564 -72.1864 101° East 262 302 11,000  Level Boston Center
19:18 42.5478 -72.0906 97° East 267 307 11,000 -660 Level Boston Center
19:19 42.5369 -71.9753 97° East 280 322 9,700 -1,380 Descending Boston Center
19:20 42.5281 -71.8625 96° East 296 341 8,000 -1,500 Descending Boston Center
19:21 42.5169 -71.7444 97° East 291 335 6,400 -1,200 Descending Boston Center
19:22 42.5225 -71.6400 86° East 265 305 5,700 -960 Descending Boston Center
19:22 42.5333 -71.6167 58° Northeast 227 261 5,100 -1,320 Descending KA90
19:23 42.5667 -71.5500 56° Northeast 231 266 4,000 -600 Descending KA90
19:24 42.5667 -71.6000 270° West 198 228 4,000  Level KA90
19:25 42.5333 -71.5667 144° Southeast 199 229 4,000 -480 Level KA90
19:26 42.5000 -71.5000 124° Southeast 199 229 3,100 -840 Descending KA90
19:27 42.4833 -71.4500 114° Southeast 146 168 2,400 -780 Descending KA90
19:28 42.4833 -71.4000 90° East 125 144 1,600 -720 Descending KA90
19:29 42.4833 -71.3500 90° East 117 135 900 -600 Descending KA90
19:30 42.4667 -71.3167 124° Southeast 109 125 500 8,760 Descending KA90
19:32 42.4733 -71.2578 81° East 100 115 24,000 8,520 Climbing Boston Center
19:33 42.4731 -71.2214 91° East 100 115 24,000  Level Boston Center
19:34 42.4728 -71.1875 91° East 100 115 24,000  Level Boston Center
19:36 42.4699 -71.2890 268° West  Level Estimated
19:43 42.4699 -71.2890 North  Level Estimated